Weather History for Flag Island, MN

Change the Weather History Date:

Friday, February 8, 2013

  Actual Average Record
Temperature  
Mean Temperature 4 °F -  
Max Temperature 21 °F 15 °F 39 °F (1999)
Min Temperature -13 °F 0 °F -20 °F (2011)
Degree Days  
Heating Degree Days 61    
Moisture  
Dew Point 3 °F    
Average Humidity 85    
Maximum Humidity 93    
Minimum Humidity 77    
Precipitation  
Precipitation 0.00 in - - ()
Sea Level Pressure  
Sea Level Pressure 30.19 in    
Wind  
Wind Speed 4 mph (SSE)    
Max Wind Speed 17 mph    
Max Gust Speed -    
Visibility 10 miles    
Events Snow    
Averages and records for this station are not official NWS values.
T = Trace of Precipitation, MM = Missing Value Source: NWS Daily Summary

Daily Weather History Graph

Daily Weather History Graph

Search for Another Location

Airport:

Trip Planner

Search our weather history database for the weather conditions in past years. The results will help you decide how hot, cold, wet, or windy it might be!

Date:

Astronomy

Feb. 08, 2013 Rise Set
Actual Time 7:40 AM CST 5:28 PM CST
Civil Twilight 7:06 AM CST 6:01 PM CST
Nautical Twilight 6:28 AM CST 6:39 PM CST
Astronomical Twilight 5:51 AM CST 7:16 PM CST
Moon 6:13 AM CST (2/8) 3:59 PM CST (2/8)
Length of Visible Light 10h 55m
Length of Day
9h 48m
Waning Crescent, 3% of the Moon is Illuminated
Feb 8
Waning Crescent
Feb 10
New
Feb 17
First Quarter
Feb 25
Full
Mar 4
Last Quarter

Hourly Weather History & Observations

Time (CST) Temp. Windchill Dew Point Humidity Pressure Visibility Wind Dir Wind Speed Gust Speed Precip Events Conditions
12:13 AM -5.8 °F - -9.4 °F 84% 30.28 in 2.5 mi Calm Calm - N/A   Clear
12:34 AM -5.8 °F - -9.4 °F 84% 30.28 in 7.0 mi Calm Calm - N/A   Clear
12:53 AM -5.8 °F - -9.4 °F 84% 30.28 in 7.0 mi Calm Calm - N/A   Clear
1:14 AM -5.8 °F - -9.4 °F 84% 30.28 in 1.5 mi Calm Calm - N/A   Mist
1:33 AM -5.8 °F - -9.4 °F 84% 30.28 in 2.5 mi Calm Calm - N/A   Clear
1:54 AM -9.4 °F - -14.8 °F 77% 30.28 in 10.0 mi Calm Calm - N/A   Clear
2:13 AM -7.6 °F - -11.2 °F 84% 30.28 in 10.0 mi Calm Calm - N/A   Clear
2:34 AM -5.8 °F - -9.4 °F 84% 30.27 in 10.0 mi Calm Calm - N/A   Clear
2:53 AM -9.4 °F - -13.0 °F 84% 30.26 in 10.0 mi Calm Calm - N/A   Clear
3:14 AM -9.4 °F - -13.0 °F 84% 30.26 in 10.0 mi Calm Calm - N/A   Clear
3:33 AM -9.4 °F - -13.0 °F 84% 30.26 in 10.0 mi Calm Calm - N/A   Clear
3:53 AM -11.2 °F - -14.8 °F 84% 30.26 in 3.0 mi Calm Calm - N/A   Clear
4:14 AM -11.2 °F - -16.6 °F 77% 30.26 in 10.0 mi Calm Calm - N/A   Clear
4:33 AM -11.2 °F - -16.6 °F 77% 30.26 in 10.0 mi Calm Calm - N/A   Clear
4:53 AM -13.0 °F - -18.4 °F 77% 30.27 in 10.0 mi Calm Calm - N/A   Clear
5:13 AM -13.0 °F - -16.6 °F 84% 30.27 in 10.0 mi Calm Calm - N/A   Clear
5:53 AM -9.4 °F - -14.8 °F 77% 30.27 in 10.0 mi Calm Calm - N/A   Clear
6:14 AM -5.8 °F -14.5 °F -7.6 °F 92% 30.27 in 10.0 mi SE 3.5 mph - N/A   Clear
6:33 AM -2.2 °F - -7.6 °F 78% 30.26 in 10.0 mi Calm Calm - N/A   Clear
6:54 AM -0.4 °F -8.3 °F -4.0 °F 85% 30.26 in 10.0 mi SE 3.5 mph - N/A   Clear
7:13 AM 1.4 °F -8.3 °F -2.2 °F 85% 30.26 in 10.0 mi SE 4.6 mph - N/A   Clear
7:34 AM -4.0 °F -12.4 °F -9.4 °F 78% 30.26 in 10.0 mi SSE 3.5 mph - N/A   Mostly Cloudy
7:53 AM -0.4 °F -12.0 °F -2.2 °F 92% 30.26 in 10.0 mi SSE 5.8 mph - N/A   Scattered Clouds
8:13 AM 1.4 °F -9.9 °F -2.2 °F 85% 30.26 in 10.0 mi SSE 5.8 mph - N/A   Clear
8:33 AM 1.4 °F -9.9 °F -2.2 °F 85% 30.25 in 10.0 mi SSE 5.8 mph - N/A   Mostly Cloudy
8:53 AM -0.4 °F -10.4 °F -5.8 °F 78% 30.25 in 10.0 mi SSE 4.6 mph - N/A   Overcast
9:13 AM -0.4 °F -12.0 °F -4.0 °F 85% 30.25 in 10.0 mi SSE 5.8 mph - N/A   Overcast
9:34 AM -0.4 °F -10.4 °F -5.8 °F 78% 30.25 in 10.0 mi SSE 4.6 mph - N/A   Overcast
9:53 AM -0.4 °F -10.4 °F -4.0 °F 85% 30.25 in 10.0 mi SSE 4.6 mph - N/A Snow Light Snow
10:14 AM -0.4 °F -8.3 °F -4.0 °F 85% 30.25 in 10.0 mi South 3.5 mph - N/A Snow Light Snow
10:58 AM 3.2 °F -7.8 °F 1.4 °F 92% 30.25 in 10.0 mi South 5.8 mph - N/A   Overcast
11:13 AM 3.2 °F -9.1 °F 1.4 °F 92% 30.25 in 10.0 mi South 6.9 mph - N/A   Scattered Clouds
11:34 AM 3.2 °F -7.8 °F 1.4 °F 92% 30.24 in 10.0 mi South 5.8 mph - N/A   Clear
11:53 AM 3.2 °F -6.2 °F 1.4 °F 92% 30.23 in 10.0 mi SSE 4.6 mph - N/A   Clear
12:14 PM 5.0 °F -5.6 °F 1.4 °F 85% 30.23 in 10.0 mi SSE 5.8 mph - N/A   Clear
12:33 PM 6.8 °F -0.1 °F 3.2 °F 85% 30.22 in 10.0 mi South 3.5 mph - N/A   Clear
12:54 PM 6.8 °F - 5.0 °F 92% 30.22 in 10.0 mi Calm Calm - N/A   Clear
1:13 PM 10.4 °F - 6.8 °F 85% 30.21 in 10.0 mi Calm Calm - N/A   Clear
1:34 PM 12.2 °F 6.1 °F 10.4 °F 92% 30.20 in 10.0 mi South 3.5 mph - N/A   Clear
1:53 PM 12.2 °F 6.1 °F 10.4 °F 92% 30.19 in 10.0 mi SSE 3.5 mph - N/A   Clear
2:13 PM 12.2 °F - 10.4 °F 92% 30.19 in 10.0 mi Calm Calm - N/A   Clear
2:34 PM 15.8 °F - 12.2 °F 86% 30.18 in 10.0 mi Calm Calm - N/A   Clear
2:53 PM 15.8 °F 10.2 °F 14.0 °F 93% 30.17 in 10.0 mi South 3.5 mph - N/A   Clear
3:13 PM 17.6 °F 10.7 °F 15.8 °F 93% 30.16 in 10.0 mi South 4.6 mph - N/A   Scattered Clouds
3:34 PM 19.4 °F 9.5 °F 17.6 °F 93% 30.16 in 10.0 mi South 8.1 mph - N/A   Scattered Clouds
3:53 PM 19.4 °F 6.6 °F 17.6 °F 93% 30.15 in 10.0 mi SSE 12.7 mph - N/A   Mostly Cloudy
4:13 PM 19.4 °F 6.0 °F 17.6 °F 93% 30.14 in 10.0 mi SSE 13.8 mph - N/A   Scattered Clouds
4:34 PM 19.4 °F 6.0 °F 17.6 °F 93% 30.13 in 10.0 mi SSE 13.8 mph - N/A   Scattered Clouds
4:53 PM 19.4 °F 5.5 °F 15.8 °F 86% 30.13 in 10.0 mi SSE 15.0 mph - N/A   Scattered Clouds
5:13 PM 19.4 °F 6.6 °F 14.0 °F 80% 30.13 in 10.0 mi SSE 12.7 mph - N/A   Mostly Cloudy
5:34 PM 17.6 °F 5.0 °F 12.2 °F 79% 30.12 in 10.0 mi SSE 11.5 mph - N/A   Overcast
5:53 PM 17.6 °F 5.7 °F 12.2 °F 79% 30.12 in 10.0 mi SSE 10.4 mph - N/A   Overcast
6:13 PM 17.6 °F 5.7 °F 12.2 °F 79% 30.12 in 10.0 mi SSE 10.4 mph - N/A   Overcast
6:34 PM 17.6 °F 5.0 °F 12.2 °F 79% 30.11 in 10.0 mi SSE 11.5 mph - N/A   Mostly Cloudy
6:54 PM 14.0 °F 2.0 °F 10.4 °F 86% 30.10 in 10.0 mi SSE 9.2 mph - N/A   Scattered Clouds
7:13 PM 15.8 °F 2.7 °F 10.4 °F 79% 30.10 in 10.0 mi SSE 11.5 mph - N/A   Mostly Cloudy
7:54 PM 17.6 °F 5.7 °F 12.2 °F 79% 30.09 in 10.0 mi SSE 10.4 mph - N/A   Overcast
8:13 PM 19.4 °F 6.0 °F 14.0 °F 80% 30.08 in 10.0 mi SSE 13.8 mph - N/A   Overcast
8:34 PM 19.4 °F 6.0 °F 15.8 °F 86% 30.07 in 10.0 mi SSE 13.8 mph - N/A   Overcast
8:54 PM 21.2 °F 7.3 °F 15.8 °F 80% 30.07 in 10.0 mi SSE 16.1 mph - N/A   Overcast
9:13 PM 21.2 °F 7.3 °F 15.8 °F 80% 30.07 in 10.0 mi SSE 16.1 mph - N/A   Overcast
9:34 PM 19.4 °F 5.5 °F 15.8 °F 86% 30.07 in 10.0 mi SSE 15.0 mph - N/A   Overcast
9:54 PM 19.4 °F 5.0 °F 15.8 °F 86% 30.07 in 10.0 mi SSE 16.1 mph - N/A   Overcast
10:13 PM 19.4 °F 4.5 °F 15.8 °F 86% 30.06 in 10.0 mi SSE 17.3 mph - N/A   Overcast
10:34 PM 19.4 °F 5.5 °F 15.8 °F 86% 30.05 in 10.0 mi SSE 15.0 mph - N/A   Overcast
10:54 PM 19.4 °F 5.5 °F 14.0 °F 80% 30.06 in 10.0 mi SSE 15.0 mph - N/A   Overcast
11:13 PM 17.6 °F 4.3 °F 14.0 °F 86% 30.05 in 10.0 mi SSE 12.7 mph - N/A   Overcast
11:34 PM 17.6 °F 3.2 °F 12.2 °F 79% 30.05 in 10.0 mi SSE 15.0 mph - N/A   Overcast
11:54 PM 19.4 °F 5.0 °F 14.0 °F 80% 30.05 in 10.0 mi SSE 16.1 mph - N/A   Overcast